Tracking 23612 objects as of 17-Sep-2021
HD Live streaming from Space Station
objects crossing your sky now
Track INSPIRATION-4

TITAN 4B R/B

Track TITAN 4B R/B now!
10-day predictions
TITAN 4B R/B is classified as:


NORAD ID: 26474
Int'l Code: 2000-047B
Perigee: 549.6 km
Apogee: 621.9 km
Inclination: 68.0 °
Period: 96.2 minutes
Semi major axis: 6956 km
RCS: 15.6118 m2 (large)
Launch date: August 17, 2000
Source: United States (US)
Launch site: AIR FORCE WESTERN TEST RANGE (AFWTR)

Note: This is a ROCKET BODY
aabbcc
Your satellite tracking list
Your tracking list is empty




NASA's NSSDC Master Catalog

Two Line Element Set (TLE):
1 26474U 00047B   21259.47136965  .00000254  00000-0  32720-4 0  9993
2 26474  67.9920 260.2351 0051930  52.8415 307.7452 14.96218322147457
Source of the keplerian elements: AFSPC